Terug naar catalogus

XIWANG-5 02

ActiefAmateurradioVLEO
NORAD 67069·PAYLOAD·🇨🇳 China

Gelanceerd Dec 13, 2025 vanaf Jiuquan Satellite Launch Center

Loading…

Volgende Passages (komende 24 uur)

TLE

VersSource: Space-Track

Epoch: Sep 14, 2026, 16:07 UTC

1 67069U 25296A   26257.67204871  .00007627  00000-0  37977-3 0  9997
2 67069  41.3528 330.6734 0004874  16.9869 343.1115 15.17770187 41839

Volg XIWANG-5 02 in realtime met AllMySat

Download on the App Store